[[{"header":{"parameterUnit":"m.s-1","parameterCategory":1,"la1":30.2991,"la2":30.254,"lo1":-89.0895,"lo2":-89.0444,"dy":0.0017,"dx":0.0017,"nx":28,"ny":28,"refTime":"2025-03-06T09:00:00:Z","depth":0,"parameterNumber":2,"parameterNumberName":"U-component_of_WINDS"},"data":[0,0,0,0,0,0,0,0,0,0,0,0,0,0,0,0,0,0,0,0,0,0,0,0,0,0,0,0,0,0,0,0,0,0,0,0,0,0,0,0,0,0,0,0,0,0,0,0,0,0,0,0,0,0,0,0,0,0,1.0264,1.0264,0,1.0259,1.0259,1.0259,1.0216,1.0215,1.0214,1.0213,1.0208,1.0209,1.021,0,0,0,0,0,0,0,0,0,0,0,0,0,1.0234,1.0235,1.0264,1.0264,1.0264,1.0259,1.0259,1.0259,1.0217,1.0215,1.0214,1.0213,1.0208,1.0209,1.021,0,0,0,0,0,0,0,0,0,0,0,0,0,1.024,1.0235,1.0264,1.0242,1.024,1.0259,1.0259,1.0259,1.0217,1.0215,1.0214,1.0212,1.0208,1.0209,1.021,1.025,0,0,1.0214,1.0215,0,0,0,0,0,0,0,0,1.024,1.0241,1.0245,1.0243,1.0241,1.0237,1.0247,1.0256,1.0217,1.0226,1.0213,1.0211,1.0219,1.0219,1.0222,1.025,1.025,1.0214,1.0215,1.0216,1.0216,0,0,0,0,0,0,0,1.0239,1.0241,1.0262,1.0245,1.0243,1.0232,1.0231,1.0248,1.0231,1.0225,1.0222,1.0222,1.0218,1.0221,1.0222,1.025,1.0214,1.0216,1.0216,1.0217,1.0308,1.031,0,0,0,0,0,0,1.0242,1.0241,1.0262,1.0262,1.0236,1.0234,1.0233,1.024,1.0231,1.0228,1.0223,1.022,1.0219,1.022,1.0221,1.0265,1.0216,1.0217,1.0218,1.0307,1.0309,1.031,0,0,0,0,0,0,1.0242,1.0244,1.0262,1.025,1.0252,1.0236,1.0244,1.0241,1.0244,1.023,1.0226,1.0229,1.0218,1.0219,1.0243,1.0265,1.0218,1.0219,1.0305,1.0307,1.0309,1.0355,0,0,0,0,0,0,1.0241,1.0244,1.026,1.0251,1.0253,1.0284,1.0246,1.0242,1.0246,1.0242,1.0235,1.0232,1.0217,1.0241,1.0244,1.0266,1.022,1.0303,1.0306,1.0309,1.0352,1.0359,1.0366,0,0,0,0,0,1.024,1.0273,1.0261,1.0264,1.0272,1.0286,1.0287,1.0268,1.0248,1.0263,1.0254,1.0232,1.0263,1.0244,1.0247,1.0269,1.0301,1.0305,1.0308,1.0349,1.0358,1.0365,0,0,0,0,0,0,1.0285,1.0272,1.0258,1.0289,1.0289,1.0279,1.0297,1.0279,1.0284,1.028,1.0257,1.0256,1.0282,1.0279,1.0258,1.0306,1.0278,1.0282,1.0308,1.0316,1.0323,1.0322,1.0221,0,0,0,0,0,1.0299,1.0312,1.0299,1.0328,1.0329,1.0313,1.0319,1.0305,1.0303,1.0303,1.0295,1.0295,1.0304,1.031,1.0318,1.0352,1.0349,1.0369,1.0375,1.0381,1.0384,1.04,1.0408,1.0323,1.0323,1.0322,0,0,1.0327,1.0321,1.0331,1.0337,1.0335,1.0348,1.0313,1.0329,1.0338,1.0305,1.0326,1.0321,1.0319,1.0347,1.0359,1.0344,1.0408,1.0386,1.039,1.0391,1.0405,1.0413,1.042,1.0325,1.0325,1.0324,0,0,1.0384,1.0383,1.0405,1.0404,1.0401,1.039,1.0396,1.0388,1.0383,1.0404,1.0379,1.039,1.0406,1.0405,1.0406,1.0463,1.0442,1.0466,1.05,1.0516,1.0523,1.0528,1.0546,1.0553,1.047,1.047,1.047,0,1.042,1.0438,1.0419,1.0436,1.0439,1.041,1.0432,1.0432,1.0432,1.0434,1.0418,1.0437,1.0434,1.046,1.0474,1.0477,1.0481,1.0465,1.0523,1.0529,1.0534,1.0551,1.0558,1.0473,1.0472,1.0472,1.0472,0,1.048,1.0494,1.0513,1.0512,1.0518,1.0537,1.052,1.0528,1.0514,1.0505,1.0525,1.052,1.0525,1.0531,1.0518,1.0556,1.0546,1.0527,1.0498,1.0545,1.056,1.0567,1.0476,1.0476,1.0475,1.0474,0,0,1.0565,1.0554,1.0561,1.0559,1.0554,1.0564,1.0582,1.0587,1.0592,1.0594,1.0607,1.0622,1.0603,1.0605,1.0592,1.0606,1.0647,1.0584,1.0584,1.0594,1.0686,1.0698,1.0706,1.0635,1.0636,1.0637,1.0685,0,1.0618,1.0647,1.063,1.0662,1.0672,1.0645,1.0661,1.0659,1.0651,1.0658,1.065,1.0659,1.0636,1.0636,1.0649,1.064,1.0665,1.0636,1.0645,1.0646,1.0644,1.0714,1.0728,1.0773,1.0691,1.0692,1.0693,0,1.0683,1.0686,1.0719,1.071,1.0714,1.0728,1.073,1.0738,1.0735,1.0728,1.073,1.0713,1.0729,1.0701,1.0722,1.0703,1.0706,1.0702,1.0703,1.0701,1.0671,1.0712,1.0788,1.0794,1.0703,1.0702,1.0701,0,1.0738,1.0751,1.0771,1.0771,1.0762,1.0772,1.0769,1.0764,1.0768,1.077,1.0772,1.0777,1.0778,1.0782,1.0766,1.0748,1.0788,1.076,1.0781,1.0782,1.0789,1.0788,1.0864,1.0796,1.0795,1.0795,1.0795,0,1.0797,1.0818,1.0795,1.0807,1.0829,1.081,1.0831,1.0825,1.0821,1.0831,1.0809,1.0819,1.0798,1.0806,1.0794,1.0812,1.0813,1.0807,1.0803,1.0808,1.0808,1.0807,1.0803,1.0797,1.0797,1.0796,1.0796,0,1.0861,1.0848,1.0867,1.0857,1.0855,1.0871,1.0861,1.0872,1.0863,1.0875,1.0877,1.0862,1.087,1.0855,1.0861,1.0853,1.0877,1.087,1.0878,1.0875,1.0896,1.0893,1.0971,1.098,1.0909,1.0909,1.091,0,1.0899,1.0913,1.0904,1.0909,1.0907,1.0916,1.0919,1.0901,1.0905,1.0902,1.0912,1.0918,1.0922,1.0935,1.0925,1.0929,1.092,1.0947,1.092,1.0923,1.0917,1.0915,1.0915,1.0951,1.0952,1.0953,1.0954,0,1.0966,1.0958,1.0963,1.0966,1.097,1.0972,1.0972,1.0977,1.0958,1.0963,1.0971,1.0973,1.0979,1.0985,1.0986,1.0982,1.0964,1.0963,1.0967,1.0971,1.0974,1.097,1.089,1.096,1.096,1.0959,1.0959,1.0958,1.1015,1.1026,1.1021,1.1028,1.1026,1.1026,1.1034,1.1026,1.1032,1.1034,1.1024,1.1033,1.1029,1.1029,1.1027,1.1034,1.1022,1.1029,1.103,1.1032,1.1034,1.0975,1.1035,1.1034,1.1034,1.1034,1.1034,0,1.1079,1.1074,1.108,1.108,1.1085,1.1069,1.1067,1.1072,1.1081,1.1078,1.1082,1.109,1.1095,1.1085,1.1088,1.1096,1.1087,1.1097,1.1095,1.1094,1.1046,1.104,1.1103,1.1103,1.1103,1.1103,1.1103,1.1103,1.1112,1.1129,1.112,1.1136,1.1131,1.114,1.114,1.114,1.1138,1.1147,1.1151,1.1145,1.1139,1.1141,1.1145,1.1142,1.1143,1.1155,1.1149,1.1104,1.1097,1.1091,1.1085,1.1156,1.1156,1.1196,1.1196,1.1196]},{"header":{"parameterUnit":"m.s-1","parameterCategory":1,"la1":30.2991,"la2":30.254,"lo1":-89.0895,"lo2":-89.0444,"dy":0.0017,"dx":0.0017,"nx":28,"ny":28,"refTime":"2025-03-06T09:00:00:Z","depth":0,"parameterNumber":3,"parameterNumberName":"V-component_of_WINDS"},"data":[0,0,0,0,0,0,0,0,0,0,0,0,0,0,0,0,0,0,0,0,0,0,0,0,0,0,0,0,0,0,0,0,0,0,0,0,0,0,0,0,0,0,0,0,0,0,0,0,0,0,0,0,0,0,0,0,0,0,1.9318,1.9317,0,1.9293,1.9293,1.9293,1.9243,1.9242,1.9241,1.9241,1.9214,1.9215,1.9215,0,0,0,0,0,0,0,0,0,0,0,0,0,1.9318,1.9319,1.9318,1.9317,1.9317,1.9293,1.9293,1.9293,1.9244,1.9242,1.9241,1.924,1.9214,1.9215,1.9215,0,0,0,0,0,0,0,0,0,0,0,0,0,1.9308,1.9319,1.9318,1.929,1.9287,1.9293,1.9293,1.9293,1.9244,1.9242,1.9241,1.924,1.9214,1.9215,1.9215,1.9246,0,0,1.9216,1.9216,0,0,0,0,0,0,0,0,1.9309,1.9308,1.9294,1.9292,1.9289,1.927,1.9284,1.9277,1.9244,1.926,1.9241,1.9239,1.9234,1.9233,1.9231,1.9245,1.9244,1.9216,1.9216,1.9216,1.9216,0,0,0,0,0,0,0,1.931,1.9309,1.9308,1.9294,1.9291,1.9277,1.9274,1.9282,1.9256,1.9259,1.9255,1.9253,1.9232,1.9231,1.923,1.9243,1.9216,1.9216,1.9216,1.9216,1.9278,1.928,0,0,0,0,0,0,1.9315,1.931,1.9309,1.9307,1.9295,1.9278,1.9275,1.9277,1.9255,1.9251,1.9254,1.9251,1.9231,1.923,1.9229,1.9262,1.9216,1.9217,1.9217,1.9277,1.9279,1.928,0,0,0,0,0,0,1.9315,1.9315,1.931,1.9308,1.9306,1.928,1.9283,1.9278,1.9276,1.9252,1.9247,1.9258,1.923,1.9229,1.9242,1.9261,1.9217,1.9217,1.9275,1.9278,1.928,1.9331,0,0,0,0,0,0,1.9315,1.9316,1.9328,1.9308,1.9306,1.9324,1.9284,1.9278,1.9277,1.9273,1.9254,1.925,1.9229,1.9241,1.9242,1.926,1.9217,1.9273,1.9276,1.9279,1.9327,1.9334,1.934,0,0,0,0,0,1.9316,1.9344,1.9329,1.9329,1.9322,1.9325,1.9324,1.9299,1.9279,1.9291,1.9274,1.925,1.9259,1.9243,1.9243,1.9262,1.9272,1.9275,1.9279,1.9324,1.9333,1.934,0,0,0,0,0,0,1.9367,1.9341,1.9324,1.9347,1.9339,1.9317,1.9331,1.931,1.9307,1.9302,1.9272,1.9268,1.9284,1.9275,1.9258,1.929,1.9261,1.9265,1.9296,1.9304,1.931,1.9312,1.9217,0,0,0,0,0,1.9381,1.9387,1.9363,1.9386,1.9382,1.9358,1.9358,1.934,1.933,1.9326,1.9311,1.9301,1.9301,1.9302,1.9301,1.9325,1.9319,1.9338,1.9345,1.935,1.9353,1.9363,1.937,1.9291,1.9291,1.9291,0,0,1.941,1.9397,1.9402,1.9396,1.9387,1.9392,1.9355,1.9363,1.9366,1.9327,1.9338,1.9326,1.9313,1.9331,1.9339,1.9324,1.9374,1.9354,1.9359,1.9359,1.9367,1.9374,1.9381,1.9293,1.9293,1.9292,0,0,1.9466,1.9457,1.9473,1.9465,1.9452,1.9435,1.9439,1.942,1.941,1.9421,1.9391,1.9393,1.9395,1.9386,1.9382,1.9431,1.9408,1.9432,1.9467,1.9476,1.9482,1.9488,1.9503,1.951,1.9435,1.9435,1.9435,0,1.9503,1.9511,1.9485,1.9494,1.9491,1.9455,1.947,1.9464,1.9451,1.9449,1.9433,1.9432,1.9421,1.9435,1.9447,1.9445,1.9447,1.9434,1.9484,1.9489,1.9493,1.9508,1.9514,1.9438,1.9438,1.9438,1.9437,0,1.9557,1.9563,1.9578,1.9566,1.9564,1.9577,1.9551,1.9552,1.9533,1.9518,1.9527,1.9512,1.9507,1.9509,1.9491,1.952,1.9511,1.949,1.946,1.9504,1.9517,1.9523,1.9442,1.9441,1.944,1.944,0,0,1.9646,1.9617,1.9623,1.9616,1.9598,1.9601,1.9611,1.9605,1.9606,1.9598,1.9604,1.9605,1.9585,1.958,1.956,1.9569,1.9606,1.9546,1.9545,1.9556,1.9635,1.965,1.9657,1.9591,1.9592,1.9592,1.9635,0,1.9696,1.9712,1.9687,1.9708,1.9712,1.9676,1.9684,1.9673,1.9658,1.9658,1.9641,1.9641,1.9615,1.9611,1.9618,1.96,1.9621,1.9597,1.9595,1.9595,1.9598,1.9664,1.9681,1.9723,1.964,1.9641,1.9642,0,1.9758,1.9752,1.9773,1.9752,1.9752,1.976,1.9751,1.9752,1.9738,1.9726,1.9719,1.9696,1.9702,1.9674,1.968,1.9664,1.9662,1.9652,1.9653,1.9652,1.9621,1.9663,1.9735,1.9741,1.965,1.9649,1.9649,0,1.9819,1.9816,1.9828,1.9823,1.9799,1.9804,1.9794,1.9779,1.9776,1.9768,1.9765,1.9758,1.9754,1.9748,1.9722,1.9705,1.9732,1.9702,1.972,1.9721,1.9728,1.9728,1.9799,1.9728,1.9728,1.9727,1.9727,0,1.9877,1.9891,1.9854,1.9862,1.9875,1.9845,1.9859,1.9846,1.9831,1.9834,1.9803,1.9806,1.9772,1.9771,1.9751,1.9758,1.9757,1.9746,1.974,1.9748,1.975,1.9746,1.9742,1.9729,1.9729,1.9728,1.9728,0,1.9948,1.9924,1.9934,1.9909,1.9903,1.9914,1.9892,1.9897,1.9879,1.9882,1.9881,1.9853,1.9849,1.9823,1.9814,1.98,1.9814,1.9803,1.9819,1.9815,1.9835,1.9833,1.9906,1.9913,1.9838,1.9839,1.984,0,1.9987,1.9996,1.9972,1.9972,1.9963,1.9963,1.9959,1.9929,1.9927,1.991,1.9916,1.991,1.9904,1.9899,1.9877,1.9869,1.9857,1.9883,1.9856,1.9863,1.9856,1.9855,1.9855,1.9889,1.989,1.9891,1.9891,0,2.0057,2.0044,2.0041,2.0033,2.003,2.0022,2.0012,2.0013,1.998,1.9978,1.9974,1.9969,1.9959,1.9952,1.994,1.9928,1.9903,1.99,1.9903,1.9912,1.992,1.9914,1.9834,1.9898,1.9898,1.9897,1.9897,1.9897,2.0112,2.0118,2.0101,2.0098,2.0087,2.0078,2.0081,2.0062,2.0059,2.0048,2.003,2.0028,2.0011,1.9992,1.9981,1.9978,1.9964,1.997,1.9971,1.9973,1.9976,1.9921,1.9976,1.9976,1.9975,1.9975,1.9975,0,2.018,2.0167,2.0164,2.0151,2.0148,2.0125,2.0112,2.011,2.0109,2.0095,2.0089,2.0083,2.0076,2.0052,2.0042,2.0044,2.0033,2.0043,2.0042,2.0039,1.999,1.9987,2.0052,2.0052,2.0052,2.0052,2.0052,2.0052,2.0215,2.0224,2.0208,2.021,2.0196,2.0194,2.0189,2.0179,2.0168,2.0162,2.0156,2.0141,2.0122,2.011,2.0102,2.0095,2.0092,2.0106,2.0095,2.005,2.0043,2.0036,2.0033,2.0106,2.0106,2.0144,2.0144,2.0145]}]]